[[[{"header":{"parameterUnit":"kt","parameterCategory":2,"dx":1,"dy":1,"la1":30.253999710083008,"la2":30.299108505249023,"lo1":-89.0895004272461,"lo2":-89.04439544677734,"nx":28,"ny":28,"refTime":"2022-10-19T09:00:00:Z","depth":"0","parameterNumber":2,"parameterNumberName":"U-component_of_CURRENTS"},"data":[-0.0905,-0.0725,-0.0732,-0.058,-0.0575,-0.0482,-0.0457,-0.0459,-0.0469,-0.0466,-0.0469,-0.0501,-0.0493,-0.042,-0.0434,-0.0478,-0.0454,-0.0397,-0.0415,-0.0581,-0.0595,-0.0608,-0.0604,-0.0471,-0.0471,-0.0251,-0.0248,-0.0247,-0.1111,-0.1053,-0.0966,-0.0838,-0.0789,-0.0812,-0.074,-0.0689,-0.0621,-0.0646,-0.0639,-0.0636,-0.0668,-0.0724,-0.0736,-0.0706,-0.0734,-0.0684,-0.0591,-0.0626,-0.0834,-0.0838,-0.0753,-0.0753,-0.0753,-0.0753,-0.0753,-0.0753,-0.1439,-0.134,-0.1219,-0.1111,-0.1035,-0.0973,-0.0883,-0.0845,-0.0766,-0.0717,-0.0759,-0.074,-0.0793,-0.0841,-0.0873,-0.0877,-0.0847,-0.0867,-0.0803,-0.0726,-0.0735,-0.0949,-0.0888,-0.0888,-0.0889,-0.0889,-0.0889,0,-0.1621,-0.1609,-0.1474,-0.1349,-0.1231,-0.1132,-0.1014,-0.0967,-0.0907,-0.0872,-0.0844,-0.0841,-0.087,-0.0889,-0.0913,-0.094,-0.0899,-0.0962,-0.093,-0.088,-0.0779,-0.0816,-0.1068,-0.0983,-0.0984,-0.0985,-0.0985,-0.0985,-0.1866,-0.1755,-0.1595,-0.1508,-0.1408,-0.1267,-0.1174,-0.11,-0.1037,-0.0984,-0.0944,-0.0932,-0.092,-0.0931,-0.0973,-0.0993,-0.097,-0.098,-0.1028,-0.0988,-0.0947,-0.0872,-0.0893,-0.0994,-0.0993,-0.0992,-0.0991,0,-0.198,-0.1882,-0.1694,-0.152,-0.1468,-0.1357,-0.1225,-0.1142,-0.1103,-0.1013,-0.0994,-0.0981,-0.0984,-0.1002,-0.1029,-0.1052,-0.1018,-0.1072,-0.1053,-0.1069,-0.1035,-0.0985,-0.0783,-0.0793,-0.1039,-0.1038,-0.1038,0,-0.2072,-0.1935,-0.179,-0.1678,-0.1517,-0.1444,-0.1301,-0.1234,-0.1162,-0.1084,-0.1079,-0.1039,-0.1068,-0.1062,-0.1103,-0.111,-0.1111,-0.115,-0.1169,-0.1166,-0.1166,-0.1137,-0.1089,-0.1178,-0.1178,-0.1178,-0.1179,0,-0.2189,-0.1991,-0.1824,-0.1757,-0.1578,-0.15,-0.1427,-0.1333,-0.1266,-0.1187,-0.1157,-0.1101,-0.1089,-0.1106,-0.1149,-0.1178,-0.1147,-0.1202,-0.1196,-0.1195,-0.118,-0.118,-0.1074,-0.1179,-0.1179,-0.118,-0.118,0,-0.2233,-0.2112,-0.1916,-0.1745,-0.1702,-0.1613,-0.1478,-0.1396,-0.131,-0.1281,-0.1225,-0.1218,-0.1163,-0.1233,-0.1205,-0.1229,-0.1253,-0.1274,-0.1274,-0.1259,-0.1319,-0.1276,-0.1192,-0.116,-0.1295,-0.1296,-0.1297,0,-0.2329,-0.2143,-0.2091,-0.1913,-0.1805,-0.1767,-0.167,-0.159,-0.154,-0.1454,-0.1427,-0.1335,-0.1364,-0.1336,-0.133,-0.1329,-0.1314,-0.1346,-0.1352,-0.1351,-0.1354,-0.1276,-0.1263,-0.121,-0.1309,-0.1307,-0.1306,0,-0.2419,-0.225,-0.2229,-0.2138,-0.2036,-0.1974,-0.1874,-0.1762,-0.1704,-0.1631,-0.154,-0.1422,-0.1438,-0.1383,-0.137,-0.1367,-0.1336,-0.1405,-0.1406,-0.1397,-0.1314,-0.1296,-0.1287,-0.1375,-0.1373,-0.1372,-0.1316,0,-0.2359,-0.2311,-0.2276,-0.2178,-0.2124,-0.2047,-0.1986,-0.1929,-0.1906,-0.1856,-0.1732,-0.1674,-0.157,-0.1543,-0.1525,-0.1436,-0.1447,-0.1482,-0.1517,-0.1465,-0.1447,-0.1439,-0.1541,-0.1542,-0.1542,-0.1543,0,0,-0.2446,-0.2393,-0.2401,-0.2322,-0.2262,-0.2261,-0.2171,-0.2127,-0.203,-0.1982,-0.2003,-0.1809,-0.1754,-0.1616,-0.1584,-0.1558,-0.1557,-0.1539,-0.1487,-0.1481,-0.1475,-0.1456,-0.1448,-0.1544,-0.1544,-0.1544,-0.1545,0,-0.2418,-0.2464,-0.2428,-0.2373,-0.2307,-0.2268,-0.2263,-0.2191,-0.2158,-0.205,-0.2022,-0.1953,-0.1797,-0.1728,-0.1677,-0.1578,-0.1571,-0.1545,-0.1498,-0.1494,-0.1487,-0.148,-0.146,-0.1452,-0.1546,-0.1546,-0.1546,0,-0.2436,-0.2425,-0.2434,-0.2406,-0.2362,-0.2286,-0.2322,-0.2275,-0.2208,-0.2192,-0.2072,-0.2021,-0.1934,-0.1807,-0.1752,-0.1771,-0.1609,-0.1634,-0.163,-0.1608,-0.1605,-0.1597,-0.1589,-0.1692,-0.1692,-0.1693,0,0,-0.2414,-0.242,-0.2387,-0.2403,-0.2377,-0.2335,-0.2309,-0.2291,-0.2234,-0.2213,-0.2137,-0.206,-0.1967,-0.1916,-0.1819,-0.1711,-0.171,-0.1653,-0.1646,-0.164,-0.1616,-0.1611,-0.1602,-0.1695,-0.1695,-0.1695,0,0,-0.2397,-0.2386,-0.2394,-0.2424,-0.2368,-0.2308,-0.228,-0.2281,-0.2219,-0.2223,-0.2158,-0.2133,-0.2016,-0.1976,-0.2014,-0.1817,-0.1846,-0.1836,-0.1836,-0.1827,-0.182,-0.1813,-0.1982,0,0,0,0,0,-0.236,-0.2386,-0.2394,-0.2397,-0.2379,-0.231,-0.2297,-0.2272,-0.2304,-0.2275,-0.2221,-0.2193,-0.1977,-0.2009,-0.198,-0.1912,-0.1722,-0.1717,-0.1712,-0.1686,-0.1677,-0.1669,0,0,0,0,0,0,-0.2361,-0.2368,-0.2391,-0.2347,-0.2341,-0.2311,-0.2329,-0.232,-0.2305,-0.2306,-0.2207,-0.2189,-0.2128,-0.2019,-0.1994,-0.193,-0.199,-0.172,-0.1716,-0.1712,-0.1683,-0.1676,-0.1669,0,0,0,0,0,-0.2361,-0.2366,-0.2369,-0.2343,-0.2338,-0.23,-0.233,-0.2323,-0.2313,-0.2213,-0.2198,-0.23,-0.2129,-0.2104,-0.2004,-0.1942,-0.2007,-0.1998,-0.1717,-0.1714,-0.1711,-0.1679,0,0,0,0,0,0,-0.2361,-0.2335,-0.2364,-0.2358,-0.2363,-0.2299,-0.2298,-0.2326,-0.222,-0.2207,-0.23,-0.2301,-0.2128,-0.2109,-0.209,-0.1949,-0.2021,-0.2012,-0.2006,-0.1715,-0.1712,-0.171,0,0,0,0,0,0,-0.2331,-0.2331,-0.2361,-0.2388,-0.2384,-0.2299,-0.2298,-0.2199,-0.2217,-0.2311,-0.231,-0.2302,-0.2142,-0.2112,-0.2098,-0.1944,-0.2031,-0.2022,-0.2016,-0.2012,-0.1713,-0.1711,0,0,0,0,0,0,-0.2329,-0.2328,-0.2389,-0.2386,-0.2383,-0.2306,-0.2205,-0.218,-0.2277,-0.2314,-0.2281,-0.2283,-0.2144,-0.2129,-0.2103,-0.1956,-0.1947,-0.2031,-0.2025,-0.2021,-0.2018,0,0,0,0,0,0,0,-0.2327,-0.2363,-0.2406,-0.2385,-0.2382,-0.2299,-0.2296,-0.2294,-0.2277,-0.2279,-0.2281,-0.2282,-0.2081,-0.2071,-0.2062,-0.1965,0,0,-0.2032,-0.2027,0,0,0,0,0,0,0,0,-0.236,-0.2362,-0.2406,-0.2405,-0.2404,-0.2298,-0.2297,-0.2295,-0.2277,-0.2279,-0.228,-0.2282,-0.2078,-0.2071,-0.2063,0,0,0,0,0,0,0,0,0,0,0,0,0,0,0,-0.2406,-0.2405,0,-0.2298,-0.2297,-0.2295,-0.2278,-0.2279,-0.228,-0.2281,-0.2076,-0.207,-0.2063,0,0,0,0,0,0,0,0,0,0,0,0,0,0,0,0,0,0,0,0,0,0,0,0,0,0,0,0,0,0,0,0,0,0,0,0,0,0,0,0,0,0,0,0,0,0,0,0,0,0,0,0,0,0,0,0,0,0,0,0,0,0,0,0,0,0,0,0,0]}],[{"header":{"parameterUnit":"kt","parameterCategory":2,"dx":1,"dy":1,"la1":30.253999710083008,"la2":30.299108505249023,"lo1":-89.0895004272461,"lo2":-89.04439544677734,"nx":28,"ny":28,"refTime":"2022-10-19T09:00:00:Z","depth":"0","parameterNumber":3,"parameterNumberName":"V-component_of_CURRENTS"},"data":[-0.0576,-0.0463,-0.0444,-0.0356,-0.0332,-0.032,-0.034,-0.04,-0.0457,-0.0613,-0.073,-0.0856,-0.1085,-0.1487,-0.1736,-0.178,-0.1901,-0.1916,-0.1982,-0.175,-0.1732,-0.1714,-0.1733,-0.1894,-0.1894,-0.2276,-0.2279,-0.2282,-0.069,-0.0646,-0.0533,-0.0439,-0.0406,-0.0406,-0.0403,-0.0422,-0.0486,-0.0568,-0.0674,-0.0918,-0.1163,-0.1337,-0.1557,-0.1632,-0.1701,-0.1639,-0.1705,-0.1771,-0.1492,-0.1506,-0.1621,-0.1621,-0.1621,-0.1621,-0.162,-0.162,-0.0877,-0.0793,-0.0695,-0.0581,-0.0523,-0.0504,-0.047,-0.0481,-0.0502,-0.0577,-0.0676,-0.079,-0.1032,-0.1228,-0.1301,-0.1413,-0.1434,-0.1418,-0.1459,-0.1498,-0.1601,-0.1285,-0.1381,-0.138,-0.138,-0.1379,-0.1379,0,-0.1022,-0.1008,-0.0871,-0.0757,-0.0673,-0.0596,-0.0533,-0.0537,-0.055,-0.0581,-0.0665,-0.0734,-0.0903,-0.106,-0.1169,-0.1209,-0.1274,-0.1216,-0.1252,-0.1383,-0.1427,-0.152,-0.1188,-0.127,-0.1269,-0.1268,-0.1267,-0.1267,-0.1257,-0.1136,-0.0981,-0.0905,-0.081,-0.0698,-0.0645,-0.0617,-0.0596,-0.0638,-0.0642,-0.0722,-0.0786,-0.0925,-0.1031,-0.1118,-0.1165,-0.1183,-0.119,-0.1214,-0.1265,-0.1307,-0.1379,-0.1253,-0.1255,-0.1256,-0.1257,0,-0.1377,-0.1296,-0.1083,-0.0922,-0.0885,-0.0783,-0.0692,-0.0647,-0.0645,-0.0625,-0.0627,-0.0675,-0.0757,-0.0806,-0.0907,-0.095,-0.1094,-0.1061,-0.1081,-0.1101,-0.1193,-0.1227,-0.1381,-0.1476,-0.1131,-0.1132,-0.1133,0,-0.1515,-0.1354,-0.1241,-0.1099,-0.0954,-0.0855,-0.0746,-0.0693,-0.0671,-0.0643,-0.0651,-0.0671,-0.073,-0.0785,-0.0837,-0.0936,-0.0932,-0.1005,-0.1022,-0.1055,-0.1059,-0.1122,-0.116,-0.1001,-0.1,-0.1,-0.1,0,-0.1692,-0.1441,-0.1273,-0.117,-0.0962,-0.0894,-0.0824,-0.0751,-0.0708,-0.0679,-0.0684,-0.0681,-0.0711,-0.0768,-0.0837,-0.0836,-0.0933,-0.0936,-0.1,-0.1001,-0.1071,-0.1077,-0.115,-0.1,-0.1,-0.0999,-0.0999,0,-0.1749,-0.1628,-0.1383,-0.1193,-0.1136,-0.1004,-0.0896,-0.0785,-0.0738,-0.0722,-0.071,-0.0716,-0.0718,-0.0763,-0.0818,-0.0805,-0.0852,-0.0891,-0.0894,-0.0943,-0.0951,-0.1038,-0.1048,-0.1089,-0.0915,-0.0914,-0.0914,0,-0.1918,-0.1692,-0.1635,-0.1374,-0.1225,-0.1165,-0.1053,-0.0951,-0.0904,-0.0836,-0.0844,-0.0766,-0.0777,-0.0768,-0.0797,-0.0822,-0.0848,-0.0821,-0.091,-0.0912,-0.0954,-0.0948,-0.0995,-0.1033,-0.0905,-0.0906,-0.0907,0,-0.2065,-0.1872,-0.1839,-0.1733,-0.1549,-0.1435,-0.1299,-0.116,-0.112,-0.0989,-0.0932,-0.0797,-0.0838,-0.0788,-0.0774,-0.0805,-0.0832,-0.0836,-0.0838,-0.0863,-0.0904,-0.0932,-0.094,-0.0863,-0.0864,-0.0865,-0.09,0,-0.2092,-0.1995,-0.1928,-0.1799,-0.1684,-0.1527,-0.1429,-0.133,-0.1292,-0.1213,-0.11,-0.1011,-0.0915,-0.0882,-0.0848,-0.0818,-0.083,-0.0848,-0.0884,-0.0861,-0.0875,-0.088,-0.0831,-0.0832,-0.0832,-0.0833,0,0,-0.225,-0.2165,-0.2162,-0.2033,-0.1931,-0.1877,-0.1723,-0.1616,-0.1402,-0.1362,-0.136,-0.1145,-0.106,-0.0944,-0.0919,-0.0856,-0.0881,-0.0855,-0.0857,-0.0859,-0.0862,-0.0875,-0.0879,-0.0834,-0.0834,-0.0834,-0.0835,0,-0.2283,-0.2292,-0.2236,-0.2113,-0.198,-0.1895,-0.1864,-0.1683,-0.1613,-0.1421,-0.1399,-0.1323,-0.1089,-0.1037,-0.0984,-0.087,-0.0888,-0.0838,-0.0825,-0.0861,-0.0862,-0.0864,-0.0877,-0.088,-0.0836,-0.0836,-0.0836,0,-0.2372,-0.2353,-0.2336,-0.2217,-0.2107,-0.1958,-0.1967,-0.1817,-0.1699,-0.1646,-0.1446,-0.1382,-0.1279,-0.112,-0.105,-0.1065,-0.092,-0.0908,-0.0905,-0.0918,-0.0957,-0.0958,-0.0959,-0.0958,-0.0959,-0.0959,0,0,-0.2402,-0.2389,-0.228,-0.2217,-0.2163,-0.2022,-0.1931,-0.1859,-0.1723,-0.1654,-0.1535,-0.1434,-0.1324,-0.1248,-0.1124,-0.0966,-0.0995,-0.0923,-0.0917,-0.0913,-0.0923,-0.0961,-0.0961,-0.0961,-0.0961,-0.0961,0,0,-0.2388,-0.2348,-0.2348,-0.229,-0.2146,-0.1967,-0.1873,-0.1824,-0.1662,-0.1673,-0.1575,-0.1537,-0.1383,-0.1323,-0.1356,-0.1143,-0.1171,-0.1158,-0.1165,-0.1156,-0.115,-0.1195,-0.1337,0,0,0,0,0,-0.2406,-0.2368,-0.2372,-0.2354,-0.2179,-0.1984,-0.1941,-0.1835,-0.1863,-0.1761,-0.1672,-0.1646,-0.1333,-0.1358,-0.1313,-0.1259,-0.0981,-0.0977,-0.0974,-0.0945,-0.0937,-0.0931,0,0,0,0,0,0,-0.2399,-0.2382,-0.237,-0.2219,-0.2177,-0.1987,-0.2009,-0.1973,-0.1869,-0.1862,-0.1665,-0.164,-0.156,-0.1375,-0.1336,-0.1287,-0.135,-0.0979,-0.0976,-0.0973,-0.0942,-0.0936,-0.0931,0,0,0,0,0,-0.2393,-0.2379,-0.2162,-0.2211,-0.2176,-0.2025,-0.2011,-0.1982,-0.1874,-0.1738,-0.1708,-0.1809,-0.156,-0.1522,-0.1351,-0.1307,-0.1376,-0.1362,-0.0977,-0.0975,-0.0973,-0.0939,0,0,0,0,0,0,-0.2388,-0.2286,-0.2148,-0.2127,-0.226,-0.2027,-0.1999,-0.199,-0.1752,-0.1724,-0.1881,-0.1879,-0.1558,-0.1529,-0.15,-0.132,-0.1398,-0.1383,-0.1374,-0.0975,-0.0974,-0.0972,0,0,0,0,0,0,-0.2293,-0.2271,-0.2136,-0.2204,-0.2189,-0.203,-0.2007,-0.1849,-0.1752,-0.1904,-0.1897,-0.1884,-0.1638,-0.1533,-0.151,-0.1262,-0.1415,-0.1401,-0.1391,-0.1385,-0.0974,-0.0972,0,0,0,0,0,0,-0.2279,-0.2258,-0.2207,-0.2195,-0.2182,-0.1926,-0.1884,-0.1722,-0.1784,-0.1915,-0.1793,-0.1797,-0.1646,-0.1618,-0.1518,-0.1279,-0.1266,-0.1414,-0.1405,-0.1398,-0.1394,0,0,0,0,0,0,0,-0.2267,-0.2468,-0.2295,-0.2188,-0.2177,-0.1941,-0.1933,-0.1925,-0.1785,-0.1788,-0.1792,-0.1795,-0.1494,-0.1479,-0.1463,-0.1294,0,0,-0.1416,-0.1409,0,0,0,0,0,0,0,0,-0.247,-0.2468,-0.2294,-0.2291,-0.2288,-0.194,-0.1934,-0.1927,-0.1785,-0.1788,-0.1791,-0.1794,-0.149,-0.1478,-0.1465,0,0,0,0,0,0,0,0,0,0,0,0,0,0,0,-0.2294,-0.2291,0,-0.1939,-0.1934,-0.1928,-0.1786,-0.1788,-0.179,-0.1793,-0.1486,-0.1476,-0.1466,0,0,0,0,0,0,0,0,0,0,0,0,0,0,0,0,0,0,0,0,0,0,0,0,0,0,0,0,0,0,0,0,0,0,0,0,0,0,0,0,0,0,0,0,0,0,0,0,0,0,0,0,0,0,0,0,0,0,0,0,0,0,0,0,0,0,0,0,0]}]],[[{"header":{"parameterUnit":"kt","parameterCategory":2,"dx":1,"dy":1,"la1":30.253999710083008,"la2":30.299108505249023,"lo1":-89.0895004272461,"lo2":-89.04439544677734,"nx":28,"ny":28,"refTime":"2022-10-19T09:00:00:Z","depth":"2","parameterNumber":2,"parameterNumberName":"U-component_of_CURRENTS"},"data":[-0.081,-0.0645,-0.0657,-0.052,-0.0522,-0.044,-0.0416,-0.0414,-0.042,-0.0414,-0.0404,-0.0375,-0.0316,-0.0198,-0.0121,-0.0073,-0.0167,-0.0044,-0.0357,-0.0344,-0.0369,-0.0389,-0.037,0,0,0,0,0,-0.1,-0.0962,-0.0882,-0.077,-0.0729,-0.075,-0.0678,-0.0628,-0.0555,-0.057,-0.0532,-0.0405,-0.0316,-0.0316,-0.0292,-0.0284,-0.0276,-0.0237,-0.0203,-0.0229,-0.0253,-0.0225,0.0003,0.0004,0.0004,0.0004,0,0,-0.1319,-0.123,-0.1139,-0.1036,-0.0964,-0.0906,-0.0817,-0.0776,-0.0691,-0.0635,-0.0638,-0.058,-0.0522,-0.0528,-0.0498,-0.0507,-0.0602,-0.0535,-0.0544,-0.0556,-0.0542,-0.0523,-0.0399,-0.0401,-0.0403,-0.0405,-0.0406,0,-0.1497,-0.1495,-0.1389,-0.1274,-0.1157,-0.1059,-0.0942,-0.0893,-0.0829,-0.0788,-0.0736,-0.0702,-0.0704,-0.0651,-0.0682,-0.068,-0.0722,-0.0677,-0.0917,-0.0644,-0.0623,-0.0651,-0.0671,-0.0523,-0.0526,-0.0528,-0.0529,-0.053,-0.1724,-0.1633,-0.1497,-0.1416,-0.1335,-0.1193,-0.11,-0.1024,-0.0961,-0.0896,-0.0855,-0.084,-0.0799,-0.081,-0.0852,-0.0869,-0.094,-0.0738,-0.076,-0.0982,-0.1009,-0.1018,-0.1027,-0.0561,-0.0557,-0.0554,-0.0551,0,-0.1839,-0.1763,-0.1593,-0.1448,-0.1396,-0.1285,-0.115,-0.1068,-0.1026,-0.0935,-0.0916,-0.0897,-0.0897,-0.0926,-0.095,-0.0972,-0.0981,-0.0986,-0.0829,-0.0828,-0.103,-0.1037,-0.0942,-0.094,-0.0939,-0.0938,-0.0937,0,-0.1935,-0.1811,-0.1695,-0.1605,-0.1444,-0.1372,-0.1227,-0.1159,-0.1087,-0.1007,-0.1004,-0.0958,-0.0995,-0.0991,-0.1029,-0.1031,-0.1034,-0.1062,-0.1079,-0.0955,-0.0944,-0.1156,-0.1164,-0.1093,-0.1093,-0.1094,-0.1094,0,-0.2058,-0.1882,-0.1732,-0.1668,-0.151,-0.143,-0.1356,-0.1258,-0.1189,-0.1111,-0.108,-0.1027,-0.1017,-0.1031,-0.1074,-0.1101,-0.107,-0.112,-0.1108,-0.1107,-0.0968,-0.0957,-0.1095,-0.1095,-0.1095,-0.1095,-0.1095,0,-0.2113,-0.2033,-0.1844,-0.1689,-0.1641,-0.1548,-0.1408,-0.1322,-0.1235,-0.1204,-0.115,-0.1143,-0.1091,-0.1161,-0.113,-0.1154,-0.1176,-0.1196,-0.1195,-0.1171,-0.123,-0.1065,-0.0945,-0.1213,-0.1214,-0.1215,-0.1216,0,-0.2219,-0.2064,-0.2033,-0.1856,-0.1747,-0.17,-0.1604,-0.1513,-0.146,-0.1377,-0.1349,-0.126,-0.129,-0.1262,-0.1257,-0.1253,-0.1237,-0.1271,-0.1269,-0.1267,-0.1275,-0.1191,-0.1037,-0.0969,-0.1228,-0.1227,-0.1226,0,-0.2312,-0.2192,-0.2176,-0.2093,-0.1988,-0.1915,-0.181,-0.1686,-0.1624,-0.1551,-0.1459,-0.1346,-0.1362,-0.1306,-0.1294,-0.129,-0.126,-0.1326,-0.1326,-0.1325,-0.1234,-0.1212,-0.1202,-0.1298,-0.1296,-0.1295,-0.1236,0,-0.223,-0.2228,-0.2202,-0.2144,-0.2082,-0.1989,-0.1916,-0.1853,-0.1824,-0.1768,-0.1644,-0.159,-0.1488,-0.1463,-0.1443,-0.1357,-0.1366,-0.1399,-0.1439,-0.1381,-0.1362,-0.1354,-0.1456,-0.1457,-0.1457,-0.1458,0,0,-0.2294,-0.2308,-0.2358,-0.2288,-0.2224,-0.2206,-0.2101,-0.205,-0.1936,-0.1887,-0.1907,-0.1718,-0.1666,-0.1531,-0.15,-0.1472,-0.1468,-0.1463,-0.1403,-0.1397,-0.1391,-0.137,-0.1362,-0.1458,-0.1459,-0.1459,-0.1459,0,-0.2266,-0.2378,-0.239,-0.2329,-0.2263,-0.2217,-0.2199,-0.2109,-0.207,-0.1952,-0.1927,-0.1857,-0.1707,-0.1646,-0.1595,-0.1489,-0.1492,-0.1459,-0.1414,-0.1408,-0.1401,-0.1395,-0.1374,-0.1366,-0.146,-0.146,-0.146,0,-0.2265,-0.2306,-0.2357,-0.2368,-0.2321,-0.2234,-0.2257,-0.2192,-0.2117,-0.2099,-0.1982,-0.1932,-0.1844,-0.1725,-0.167,-0.169,-0.1534,-0.156,-0.1555,-0.1534,-0.1529,-0.1521,-0.1513,-0.1617,-0.1618,-0.1619,0,0,-0.2238,-0.2321,-0.2298,-0.2362,-0.2331,-0.2275,-0.2244,-0.2211,-0.2143,-0.2114,-0.2047,-0.1971,-0.188,-0.1829,-0.1739,-0.1633,-0.163,-0.1581,-0.1573,-0.1567,-0.1543,-0.1536,-0.1527,-0.1621,-0.1621,-0.1621,0,0,-0.2199,-0.2262,-0.2292,-0.2382,-0.2315,-0.2243,-0.2216,-0.22,-0.2125,-0.2127,-0.2071,-0.2047,-0.193,-0.1891,-0.1935,-0.1748,-0.1777,-0.1765,-0.1776,-0.1766,-0.1759,-0.1753,-0.1925,0,0,0,0,0,-0.2191,-0.226,-0.2289,-0.2304,-0.2333,-0.2247,-0.2232,-0.2203,-0.2225,-0.2186,-0.2129,-0.2114,-0.1898,-0.1936,-0.1909,-0.1852,-0.1656,-0.165,-0.1644,-0.1631,-0.1621,-0.1613,0,0,0,0,0,0,-0.2197,-0.2222,-0.2283,-0.2239,-0.2243,-0.2248,-0.2269,-0.2258,-0.2227,-0.2226,-0.2127,-0.2111,-0.2063,-0.1946,-0.1923,-0.1869,-0.1933,-0.1654,-0.1648,-0.1644,-0.1628,-0.162,-0.1613,0,0,0,0,0,-0.2201,-0.222,-0.2315,-0.2232,-0.2236,-0.2198,-0.227,-0.2262,-0.223,-0.2151,-0.2135,-0.2213,-0.2064,-0.204,-0.1932,-0.1881,-0.1949,-0.194,-0.165,-0.1646,-0.1642,-0.1624,0,0,0,0,0,0,-0.2204,-0.2171,-0.231,-0.2303,-0.225,-0.2192,-0.2197,-0.2264,-0.2154,-0.2141,-0.2233,-0.2234,-0.2063,-0.2045,-0.2027,-0.1887,-0.1961,-0.1953,-0.1947,-0.1647,-0.1644,-0.1641,0,0,0,0,0,0,-0.2159,-0.2168,-0.2306,-0.2332,-0.2328,-0.2187,-0.2193,-0.2102,-0.2152,-0.2241,-0.224,-0.2235,-0.2082,-0.2048,-0.2034,-0.1891,-0.1971,-0.1963,-0.1957,-0.1954,-0.1644,-0.1642,0,0,0,0,0,0,-0.2159,-0.2165,-0.2333,-0.233,-0.2326,-0.2244,-0.2098,-0.2126,-0.2204,-0.2244,-0.2208,-0.221,-0.2085,-0.2071,-0.2039,-0.1902,-0.1894,-0.1971,-0.1965,-0.1961,-0.1959,0,0,0,0,0,0,0,-0.2158,-0.2163,-0.2357,-0.2328,-0.2325,-0.2243,-0.224,-0.2238,-0.2204,-0.2206,-0.2207,-0.2209,-0.2018,-0.2009,-0.2,-0.1911,0,0,-0.1972,-0.1968,0,0,0,0,0,0,0,0,-0.2156,-0.2162,-0.2357,-0.2356,-0.2355,-0.2243,-0.2241,-0.2238,-0.2204,-0.2206,-0.2207,-0.2208,-0.2016,-0.2008,-0.2001,0,0,0,0,0,0,0,0,0,0,0,0,0,0,0,-0.2357,-0.2356,0,-0.2242,-0.2241,-0.2239,-0.2205,-0.2206,-0.2207,-0.2208,-0.2014,-0.2008,-0.2001,0,0,0,0,0,0,0,0,0,0,0,0,0,0,0,0,0,0,0,0,0,0,0,0,0,0,0,0,0,0,0,0,0,0,0,0,0,0,0,0,0,0,0,0,0,0,0,0,0,0,0,0,0,0,0,0,0,0,0,0,0,0,0,0,0,0,0,0,0]}],[{"header":{"parameterUnit":"kt","parameterCategory":2,"dx":1,"dy":1,"la1":30.253999710083008,"la2":30.299108505249023,"lo1":-89.0895004272461,"lo2":-89.04439544677734,"nx":28,"ny":28,"refTime":"2022-10-19T09:00:00:Z","depth":"2","parameterNumber":3,"parameterNumberName":"V-component_of_CURRENTS"},"data":[-0.0349,-0.0276,-0.0262,-0.0187,-0.0161,-0.0141,-0.0146,-0.018,-0.021,-0.025,-0.027,-0.0253,-0.0157,-0.0117,-0.0031,-0.0015,-0.0061,0.0039,-0.0268,-0.0173,-0.0194,-0.0196,-0.0126,0,0,0,0,0,-0.0418,-0.0395,-0.0314,-0.0246,-0.0213,-0.0206,-0.0191,-0.02,-0.024,-0.0285,-0.0312,-0.0227,-0.0154,-0.0168,-0.023,-0.0236,-0.0178,-0.0172,-0.0076,-0.0096,-0.0115,-0.0059,0.0088,0.0088,0.0088,0.0088,0,0,-0.0539,-0.0482,-0.0456,-0.0357,-0.0306,-0.0281,-0.0246,-0.0253,-0.0257,-0.0311,-0.0324,-0.0314,-0.0252,-0.0367,-0.0371,-0.0427,-0.0494,-0.0409,-0.0413,-0.0421,-0.0382,-0.0353,-0.0319,-0.0322,-0.0324,-0.0325,-0.0327,0,-0.0642,-0.0633,-0.0581,-0.0502,-0.0433,-0.0361,-0.0308,-0.0309,-0.0322,-0.0335,-0.0359,-0.0338,-0.0421,-0.0418,-0.0525,-0.0524,-0.0556,-0.0539,-0.0774,-0.0371,-0.0337,-0.0339,-0.0348,-0.0309,-0.0311,-0.0313,-0.0314,-0.0315,-0.0733,-0.0717,-0.0644,-0.059,-0.0556,-0.046,-0.0413,-0.0393,-0.0373,-0.0394,-0.0393,-0.0452,-0.0433,-0.0544,-0.0638,-0.0706,-0.0746,-0.0588,-0.0544,-0.0732,-0.0737,-0.0733,-0.0729,-0.0341,-0.0337,-0.0335,-0.0333,0,-0.0786,-0.0788,-0.0717,-0.066,-0.0629,-0.054,-0.0463,-0.0422,-0.0421,-0.04,-0.0402,-0.0432,-0.0492,-0.0555,-0.0633,-0.0665,-0.072,-0.0746,-0.0551,-0.0537,-0.0729,-0.0725,-0.0768,-0.0769,-0.0769,-0.0769,-0.077,0,-0.0845,-0.0792,-0.0785,-0.0744,-0.0637,-0.0609,-0.0514,-0.0469,-0.0449,-0.0421,-0.0432,-0.0436,-0.0496,-0.0545,-0.0589,-0.0659,-0.0664,-0.0698,-0.0707,-0.0542,-0.0529,-0.0669,-0.0664,-0.0708,-0.0708,-0.0707,-0.0707,0,-0.0911,-0.0877,-0.0815,-0.0763,-0.0707,-0.0649,-0.0591,-0.0526,-0.0486,-0.046,-0.0463,-0.046,-0.0485,-0.0528,-0.0591,-0.0585,-0.0667,-0.0659,-0.0694,-0.0694,-0.0533,-0.0519,-0.0707,-0.0707,-0.0707,-0.0707,-0.0706,0,-0.0963,-0.0982,-0.0904,-0.0847,-0.0817,-0.0742,-0.0618,-0.0557,-0.0515,-0.0501,-0.0492,-0.0494,-0.0497,-0.0535,-0.0576,-0.0565,-0.0603,-0.0632,-0.0634,-0.0621,-0.0622,-0.0499,-0.0483,-0.0655,-0.0654,-0.0654,-0.0654,0,-0.0971,-0.0973,-0.1011,-0.0919,-0.0883,-0.0823,-0.0748,-0.0682,-0.0643,-0.0599,-0.0595,-0.054,-0.0554,-0.0544,-0.0568,-0.0578,-0.0602,-0.0581,-0.0613,-0.0614,-0.0629,-0.0649,-0.0465,-0.0482,-0.0647,-0.0648,-0.0648,0,-0.1001,-0.1084,-0.1078,-0.1064,-0.1,-0.0941,-0.0871,-0.0787,-0.0753,-0.0709,-0.0657,-0.0571,-0.0599,-0.0545,-0.0527,-0.0548,-0.0591,-0.0558,-0.0558,-0.0588,-0.064,-0.064,-0.0645,-0.0605,-0.0606,-0.0607,-0.0643,0,-0.09,-0.1051,-0.1059,-0.1115,-0.1062,-0.0996,-0.0948,-0.0904,-0.088,-0.0842,-0.0764,-0.0711,-0.0628,-0.0608,-0.057,-0.0546,-0.0548,-0.0548,-0.0544,-0.055,-0.0562,-0.0566,-0.0509,-0.0508,-0.0508,-0.0507,0,0,-0.0844,-0.1074,-0.1172,-0.1177,-0.1125,-0.1123,-0.1067,-0.1022,-0.0937,-0.0903,-0.0909,-0.0761,-0.0693,-0.0594,-0.0589,-0.0545,-0.0556,-0.0517,-0.0536,-0.054,-0.0543,-0.0556,-0.0561,-0.0506,-0.0506,-0.0506,-0.0506,0,-0.0817,-0.1083,-0.119,-0.1149,-0.1165,-0.1128,-0.1122,-0.107,-0.1035,-0.0939,-0.0914,-0.0865,-0.0699,-0.065,-0.0596,-0.0544,-0.0526,-0.0512,-0.051,-0.0531,-0.0535,-0.0539,-0.0553,-0.0558,-0.0504,-0.0504,-0.0504,0,-0.0742,-0.0901,-0.1009,-0.1196,-0.1182,-0.1134,-0.1148,-0.1117,-0.1061,-0.1013,-0.0914,-0.0868,-0.0766,-0.0668,-0.0617,-0.061,-0.0516,-0.0503,-0.0504,-0.0497,-0.0518,-0.0522,-0.0526,-0.0485,-0.0485,-0.0485,0,0,-0.0692,-0.0882,-0.0978,-0.1196,-0.1192,-0.1162,-0.1145,-0.1126,-0.1064,-0.1032,-0.0955,-0.0876,-0.079,-0.073,-0.0644,-0.0539,-0.0542,-0.0503,-0.0504,-0.0505,-0.0499,-0.0519,-0.0523,-0.0486,-0.0486,-0.0486,0,0,-0.0601,-0.0819,-0.093,-0.1221,-0.1188,-0.1135,-0.1126,-0.1109,-0.103,-0.1041,-0.0954,-0.0925,-0.0827,-0.0764,-0.0787,-0.0637,-0.0631,-0.0623,-0.0673,-0.0673,-0.0674,-0.0691,-0.0741,0,0,0,0,0,-0.0601,-0.0802,-0.0906,-0.0971,-0.1201,-0.1138,-0.1128,-0.111,-0.1128,-0.1087,-0.1028,-0.0984,-0.0768,-0.0786,-0.0753,-0.0718,-0.0496,-0.0495,-0.0493,-0.0533,-0.0534,-0.0535,0,0,0,0,0,0,-0.0627,-0.0719,-0.0892,-0.0905,-0.0951,-0.1138,-0.1155,-0.1146,-0.113,-0.1128,-0.1002,-0.098,-0.0916,-0.0796,-0.0768,-0.0737,-0.0751,-0.0496,-0.0494,-0.0493,-0.0534,-0.0534,-0.0535,0,0,0,0,0,-0.0646,-0.0719,-0.1181,-0.0888,-0.0929,-0.0931,-0.1155,-0.1148,-0.1113,-0.103,-0.1009,-0.1108,-0.0918,-0.0888,-0.0779,-0.0752,-0.077,-0.0759,-0.0495,-0.0493,-0.0492,-0.0534,0,0,0,0,0,0,-0.066,-0.0613,-0.1178,-0.1175,-0.0903,-0.091,-0.0944,-0.1149,-0.1012,-0.0998,-0.1132,-0.1131,-0.0918,-0.0895,-0.0872,-0.0762,-0.0785,-0.0775,-0.0768,-0.0494,-0.0493,-0.0492,0,0,0,0,0,0,-0.0572,-0.0616,-0.1175,-0.1199,-0.1197,-0.0892,-0.0924,-0.0818,-0.1006,-0.1115,-0.1115,-0.1133,-0.0937,-0.0899,-0.0881,-0.071,-0.0797,-0.0787,-0.078,-0.0776,-0.0493,-0.0492,0,0,0,0,0,0,-0.0582,-0.0619,-0.1198,-0.1197,-0.1196,-0.1148,-0.078,-0.1007,-0.1096,-0.1117,-0.1099,-0.1101,-0.0941,-0.0922,-0.0888,-0.0725,-0.0714,-0.0797,-0.079,-0.0785,-0.0782,0,0,0,0,0,0,0,-0.0591,-0.0447,-0.1216,-0.1195,-0.1194,-0.1154,-0.1151,-0.1148,-0.1096,-0.1098,-0.1099,-0.11,-0.0854,-0.0843,-0.0832,-0.0737,0,0,-0.0798,-0.0793,0,0,0,0,0,0,0,0,-0.0421,-0.044,-0.1216,-0.1217,-0.1218,-0.1154,-0.1151,-0.1149,-0.1097,-0.1098,-0.1099,-0.11,-0.0851,-0.0842,-0.0833,0,0,0,0,0,0,0,0,0,0,0,0,0,0,0,-0.1216,-0.1217,0,-0.1154,-0.1152,-0.115,-0.1097,-0.1098,-0.1099,-0.1099,-0.0849,-0.0841,-0.0834,0,0,0,0,0,0,0,0,0,0,0,0,0,0,0,0,0,0,0,0,0,0,0,0,0,0,0,0,0,0,0,0,0,0,0,0,0,0,0,0,0,0,0,0,0,0,0,0,0,0,0,0,0,0,0,0,0,0,0,0,0,0,0,0,0,0,0,0,0]}]],[[{"header":{"parameterUnit":"kt","parameterCategory":2,"dx":1,"dy":1,"la1":30.253999710083008,"la2":30.299108505249023,"lo1":-89.0895004272461,"lo2":-89.04439544677734,"nx":28,"ny":28,"refTime":"2022-10-19T09:00:00:Z","depth":"4","parameterNumber":2,"parameterNumberName":"U-component_of_CURRENTS"},"data":[-0.0674,-0.0621,-0.0576,-0.0519,-0.0457,-0.0459,-0.0454,-0.0467,-0.044,-0.0463,-0.043,-0.0437,-0.0389,-0.0419,-0.034,-0.0339,-0.0491,-0.0343,-0.0341,-0.0641,-0.0662,-0.068,-0.0686,0,0,0,0,0,-0.0733,-0.0641,-0.061,-0.0518,-0.0542,-0.0508,-0.0527,-0.0572,-0.0611,-0.0517,-0.0573,-0.0475,-0.0415,-0.0413,-0.0358,-0.0416,-0.0527,-0.0353,-0.0609,-0.0654,-0.0677,-0.0675,0,0,0,0,0,0,-0.0782,-0.0734,-0.0644,-0.0582,-0.0582,-0.0543,-0.0584,-0.0585,-0.0629,-0.0659,-0.0592,-0.0569,-0.0561,-0.051,-0.0493,-0.0474,-0.0513,-0.0569,-0.0595,-0.0617,-0.0598,-0.0617,-0.0293,0,0,0,0,0,-0.0776,-0.0728,-0.0694,-0.062,-0.0612,-0.0623,-0.0708,-0.0689,-0.0854,-0.088,-0.0796,-0.0766,-0.062,-0.0627,-0.0584,-0.0614,-0.084,-0.075,-0.0765,-0.0885,-0.092,-0.0861,-0.088,-0.0763,-0.0765,-0.0767,-0.0768,0,-0.076,-0.0734,-0.0672,-0.0645,-0.0644,-0.0741,-0.0811,-0.0971,-0.1013,-0.1054,-0.1012,-0.094,-0.0955,-0.0752,-0.0814,-0.0814,-0.082,-0.0808,-0.0935,-0.0958,-0.089,-0.0904,-0.0916,-0.0786,-0.0785,-0.0784,-0.0782,0,-0.0748,-0.0721,-0.0696,-0.0718,-0.0733,-0.0807,-0.0911,-0.1002,-0.1154,-0.1178,-0.121,-0.1246,-0.1166,-0.1176,-0.112,-0.1113,-0.1047,-0.0988,-0.1228,-0.1156,-0.0946,-0.095,-0.0816,-0.081,-0.0804,-0.0799,-0.0795,0,-0.074,-0.0742,-0.0719,-0.07,-0.0754,-0.0848,-0.0962,-0.1081,-0.1215,-0.1261,-0.1416,-0.1392,-0.1454,-0.1377,-0.142,-0.1267,-0.1307,-0.1215,-0.1131,-0.135,-0.1353,-0.1309,-0.1307,-0.1328,-0.1329,-0.133,-0.1331,0,-0.0755,-0.0735,-0.0721,-0.0715,-0.0767,-0.0805,-0.0905,-0.106,-0.1127,-0.1316,-0.1333,-0.1478,-0.148,-0.1495,-0.1464,-0.1503,-0.1355,-0.1353,-0.1185,-0.1173,-0.1312,-0.131,-0.1331,-0.1332,-0.1332,-0.1332,-0.1332,0,-0.0756,-0.0736,-0.0716,-0.0754,-0.0762,-0.079,-0.0909,-0.1008,-0.1153,-0.1241,-0.1376,-0.144,-0.1531,-0.1563,-0.154,-0.156,-0.1535,-0.1484,-0.1475,-0.1302,-0.1185,-0.1291,-0.1339,-0.134,-0.1341,-0.1341,-0.1342,0,-0.0764,-0.073,-0.0727,-0.073,-0.0722,-0.0756,-0.0843,-0.0916,-0.102,-0.1126,-0.1234,-0.136,-0.1446,-0.154,-0.1562,-0.1505,-0.1519,-0.1558,-0.136,-0.1356,-0.1197,-0.1201,-0.1448,-0.135,-0.1349,-0.1348,-0.1348,0,-0.0767,-0.0733,-0.0729,-0.0724,-0.0735,-0.0736,-0.08,-0.0865,-0.0958,-0.1054,-0.1166,-0.1327,-0.141,-0.1466,-0.1515,-0.1518,-0.1524,-0.1493,-0.1487,-0.1446,-0.1393,-0.1231,-0.121,-0.1448,-0.1448,-0.1448,-0.1353,0,-0.0747,-0.0738,-0.0731,-0.0724,-0.0731,-0.0733,-0.0762,-0.0812,-0.0907,-0.0965,-0.11,-0.1172,-0.1291,-0.1325,-0.1383,-0.1446,-0.1413,-0.135,-0.1325,-0.1374,-0.1326,-0.1322,-0.1347,-0.1345,-0.1344,-0.1343,0,0,-0.0755,-0.0738,-0.073,-0.0714,-0.0712,-0.0742,-0.0746,-0.0784,-0.0838,-0.089,-0.093,-0.1098,-0.1151,-0.1253,-0.1307,-0.1301,-0.1262,-0.1371,-0.1359,-0.1362,-0.1363,-0.132,-0.1318,-0.1341,-0.134,-0.134,-0.1339,0,-0.0738,-0.0735,-0.0729,-0.072,-0.0711,-0.0716,-0.0742,-0.0756,-0.0797,-0.0889,-0.0905,-0.0999,-0.1112,-0.1141,-0.1185,-0.1275,-0.1244,-0.1304,-0.142,-0.1349,-0.1353,-0.1357,-0.1315,-0.1314,-0.1336,-0.1336,-0.1336,0,-0.0732,-0.0714,-0.0716,-0.0698,-0.0693,-0.0692,-0.071,-0.0725,-0.076,-0.0795,-0.0877,-0.0924,-0.0981,-0.1059,-0.1108,-0.1104,-0.1215,-0.1221,-0.1228,-0.1265,-0.119,-0.1196,-0.1201,-0.1131,-0.1131,-0.113,0,0,-0.072,-0.0716,-0.0693,-0.0691,-0.0684,-0.0699,-0.0708,-0.072,-0.0753,-0.0782,-0.0835,-0.0897,-0.0956,-0.1014,-0.1038,-0.1138,-0.1098,-0.1198,-0.1208,-0.1216,-0.1256,-0.1185,-0.1191,-0.1128,-0.1128,-0.1128,0,0,-0.0715,-0.0687,-0.0688,-0.0679,-0.0675,-0.066,-0.0667,-0.0706,-0.0764,-0.0785,-0.0829,-0.0845,-0.0935,-0.0957,-0.0926,-0.1066,-0.1022,-0.103,-0.1071,-0.1083,-0.1092,-0.1129,-0.092,0,0,0,0,0,-0.0687,-0.0685,-0.0686,-0.0681,-0.0665,-0.0654,-0.0655,-0.0664,-0.0714,-0.0731,-0.0786,-0.0805,-0.093,-0.0903,-0.092,-0.0998,-0.1103,-0.1108,-0.1112,-0.1184,-0.1197,-0.1207,0,0,0,0,0,0,-0.0685,-0.0679,-0.0685,-0.0666,-0.0662,-0.0655,-0.0658,-0.0661,-0.0711,-0.0716,-0.0792,-0.0804,-0.0805,-0.0896,-0.0912,-0.0986,-0.0914,-0.1105,-0.1109,-0.1112,-0.1188,-0.1199,-0.1208,0,0,0,0,0,-0.0683,-0.0678,-0.065,-0.0667,-0.0663,-0.0667,-0.0659,-0.0662,-0.0725,-0.0731,-0.0746,-0.0737,-0.0802,-0.0821,-0.0906,-0.0979,-0.0904,-0.091,-0.1108,-0.1111,-0.1113,-0.1193,0,0,0,0,0,0,-0.0682,-0.0693,-0.065,-0.0649,-0.0674,-0.067,-0.067,-0.0663,-0.0741,-0.075,-0.0672,-0.0674,-0.0801,-0.0816,-0.083,-0.0976,-0.0895,-0.0901,-0.0905,-0.111,-0.1112,-0.1114,0,0,0,0,0,0,-0.0695,-0.0692,-0.065,-0.0658,-0.0659,-0.0672,-0.0672,-0.0728,-0.0745,-0.068,-0.0682,-0.0672,-0.0808,-0.0812,-0.0823,-0.0908,-0.0889,-0.0894,-0.0898,-0.0901,-0.1112,-0.1114,0,0,0,0,0,0,-0.0694,-0.0692,-0.0659,-0.0659,-0.066,-0.0659,-0.0727,-0.0732,-0.0682,-0.068,-0.0684,-0.0685,-0.0806,-0.0816,-0.0818,-0.0898,-0.0905,-0.0889,-0.0893,-0.0895,-0.0897,0,0,0,0,0,0,0,-0.0693,-0.0704,-0.0646,-0.066,-0.0661,-0.0642,-0.0642,-0.0643,-0.0682,-0.0683,-0.0684,-0.0685,-0.0857,-0.0863,-0.087,-0.0889,0,0,-0.0888,-0.0891,0,0,0,0,0,0,0,0,-0.0705,-0.0704,-0.0646,-0.0645,-0.0645,-0.0642,-0.0642,-0.0643,-0.0682,-0.0683,-0.0684,-0.0685,-0.0859,-0.0864,-0.0869,0,0,0,0,0,0,0,0,0,0,0,0,0,0,0,-0.0646,-0.0645,0,-0.0642,-0.0642,-0.0643,-0.0683,-0.0683,-0.0684,-0.0684,-0.086,-0.0864,-0.0869,0,0,0,0,0,0,0,0,0,0,0,0,0,0,0,0,0,0,0,0,0,0,0,0,0,0,0,0,0,0,0,0,0,0,0,0,0,0,0,0,0,0,0,0,0,0,0,0,0,0,0,0,0,0,0,0,0,0,0,0,0,0,0,0,0,0,0,0,0]}],[{"header":{"parameterUnit":"kt","parameterCategory":2,"dx":1,"dy":1,"la1":30.253999710083008,"la2":30.299108505249023,"lo1":-89.0895004272461,"lo2":-89.04439544677734,"nx":28,"ny":28,"refTime":"2022-10-19T09:00:00:Z","depth":"4","parameterNumber":3,"parameterNumberName":"V-component_of_CURRENTS"},"data":[-0.0258,-0.0255,-0.0208,-0.0204,-0.0209,-0.0264,-0.0313,-0.0365,-0.033,-0.0352,-0.0331,-0.0346,-0.0317,-0.034,-0.0283,-0.0285,-0.0276,-0.0319,-0.0317,-0.0325,-0.0329,-0.0333,-0.0326,0,0,0,0,0,-0.0236,-0.0209,-0.0227,-0.0258,-0.0278,-0.0329,-0.0407,-0.0462,-0.0497,-0.0425,-0.043,-0.0388,-0.0341,-0.0354,-0.0303,-0.0376,-0.0345,-0.0317,-0.0323,-0.0328,-0.0332,-0.0324,0,0,0,0,0,0,-0.0202,-0.0208,-0.0235,-0.028,-0.0341,-0.039,-0.0451,-0.0471,-0.0481,-0.0472,-0.0458,-0.0438,-0.0459,-0.042,-0.0389,-0.0355,-0.0329,-0.0304,-0.0309,-0.0314,-0.0303,-0.0274,-0.0243,0,0,0,0,0,-0.0195,-0.0197,-0.0259,-0.032,-0.0395,-0.0483,-0.0539,-0.0538,-0.0554,-0.0578,-0.0516,-0.048,-0.0475,-0.045,-0.0427,-0.0379,-0.0422,-0.0394,-0.0395,-0.037,-0.0352,-0.0383,-0.0388,-0.035,-0.0351,-0.0351,-0.0351,0,-0.0167,-0.0202,-0.033,-0.0385,-0.0457,-0.0532,-0.059,-0.0632,-0.0625,-0.0618,-0.0588,-0.0569,-0.0538,-0.0495,-0.0495,-0.0436,-0.0417,-0.0407,-0.038,-0.036,-0.0389,-0.0393,-0.0397,-0.0355,-0.0355,-0.0354,-0.0354,0,-0.0151,-0.0259,-0.0351,-0.0507,-0.0555,-0.059,-0.0678,-0.0694,-0.068,-0.0642,-0.0597,-0.0585,-0.0542,-0.0543,-0.0517,-0.0486,-0.0453,-0.0428,-0.0463,-0.0495,-0.0402,-0.0405,-0.0361,-0.036,-0.0359,-0.0358,-0.0357,0,-0.0228,-0.0293,-0.0452,-0.0496,-0.0587,-0.0662,-0.0704,-0.0718,-0.0722,-0.0702,-0.0639,-0.0597,-0.0562,-0.0554,-0.0496,-0.0452,-0.0485,-0.0406,-0.043,-0.0478,-0.048,-0.045,-0.045,-0.0456,-0.0456,-0.0456,-0.0456,0,-0.0246,-0.0382,-0.0472,-0.0514,-0.0653,-0.0697,-0.0737,-0.078,-0.0793,-0.0722,-0.07,-0.0629,-0.0575,-0.0531,-0.048,-0.047,-0.0473,-0.0496,-0.0444,-0.0443,-0.0451,-0.045,-0.0456,-0.0457,-0.0457,-0.0457,-0.0457,0,-0.0305,-0.039,-0.0493,-0.0603,-0.0627,-0.068,-0.0749,-0.0787,-0.0796,-0.078,-0.0704,-0.0656,-0.0581,-0.0539,-0.0496,-0.0491,-0.0456,-0.0463,-0.0465,-0.0397,-0.0448,-0.0469,-0.0506,-0.0506,-0.0506,-0.0507,-0.0507,0,-0.0303,-0.0408,-0.0462,-0.0547,-0.0596,-0.0642,-0.0708,-0.075,-0.0755,-0.0759,-0.0714,-0.0679,-0.0616,-0.0547,-0.0528,-0.052,-0.0494,-0.0502,-0.0487,-0.0486,-0.0443,-0.0464,-0.0521,-0.0512,-0.0511,-0.0511,-0.051,0,-0.0278,-0.0398,-0.0402,-0.0443,-0.0518,-0.0551,-0.0623,-0.0668,-0.0687,-0.0695,-0.0698,-0.0677,-0.0596,-0.0576,-0.053,-0.0516,-0.0505,-0.0473,-0.0473,-0.0454,-0.0506,-0.0475,-0.0469,-0.0524,-0.0524,-0.0523,-0.0514,0,-0.0318,-0.0356,-0.0382,-0.0437,-0.0477,-0.0517,-0.0556,-0.0592,-0.0609,-0.062,-0.0625,-0.0596,-0.0558,-0.0585,-0.0534,-0.0521,-0.05,-0.0523,-0.0467,-0.0498,-0.0494,-0.0492,-0.0505,-0.0504,-0.0503,-0.0502,0,0,-0.0259,-0.0307,-0.0324,-0.0367,-0.0399,-0.0409,-0.0455,-0.049,-0.0526,-0.0534,-0.0522,-0.0523,-0.0514,-0.0506,-0.0499,-0.0525,-0.0502,-0.0442,-0.0495,-0.0494,-0.0494,-0.049,-0.0489,-0.0501,-0.05,-0.05,-0.05,0,-0.0262,-0.0276,-0.0309,-0.0338,-0.0371,-0.0395,-0.0406,-0.0448,-0.0473,-0.0503,-0.0493,-0.0481,-0.0487,-0.0473,-0.0466,-0.0511,-0.0467,-0.0518,-0.0471,-0.0489,-0.049,-0.049,-0.0487,-0.0487,-0.0498,-0.0498,-0.0498,0,-0.0232,-0.0253,-0.0268,-0.0304,-0.0328,-0.0369,-0.036,-0.0399,-0.0441,-0.0395,-0.0446,-0.0431,-0.0413,-0.0424,-0.0426,-0.0395,-0.0412,-0.0416,-0.042,-0.0363,-0.0377,-0.0379,-0.0381,-0.0355,-0.0355,-0.0354,0,0,-0.0226,-0.0255,-0.0276,-0.0302,-0.0314,-0.0346,-0.037,-0.0384,-0.0399,-0.041,-0.0405,-0.0398,-0.0401,-0.0383,-0.039,-0.0386,-0.036,-0.0399,-0.0405,-0.0411,-0.0358,-0.0373,-0.0376,-0.0353,-0.0353,-0.0352,0,0,-0.0224,-0.0254,-0.025,-0.0282,-0.0306,-0.0346,-0.0374,-0.0388,-0.0407,-0.0405,-0.038,-0.0373,-0.0387,-0.0361,-0.0343,-0.0368,-0.0341,-0.0343,-0.0374,-0.0382,-0.0389,-0.0324,-0.0307,0,0,0,0,0,-0.0223,-0.0248,-0.0245,-0.0251,-0.0303,-0.0344,-0.0354,-0.0376,-0.0382,-0.0403,-0.0394,-0.0367,-0.0351,-0.0335,-0.033,-0.0348,-0.0332,-0.0336,-0.0339,-0.0381,-0.039,-0.0397,0,0,0,0,0,0,-0.0226,-0.0233,-0.0244,-0.0281,-0.0292,-0.0343,-0.0338,-0.0346,-0.0379,-0.038,-0.0374,-0.0367,-0.0345,-0.0335,-0.0331,-0.0349,-0.0308,-0.0334,-0.0337,-0.0339,-0.0384,-0.0391,-0.0397,0,0,0,0,0,-0.0228,-0.0234,-0.0304,-0.0282,-0.0292,-0.0326,-0.0337,-0.0344,-0.0379,-0.0352,-0.0349,-0.0392,-0.0346,-0.034,-0.0332,-0.0351,-0.031,-0.0309,-0.0336,-0.0338,-0.034,-0.0388,0,0,0,0,0,0,-0.023,-0.0255,-0.0308,-0.0313,-0.0267,-0.0325,-0.0332,-0.0342,-0.0347,-0.0347,-0.0365,-0.0364,-0.0347,-0.0343,-0.0339,-0.0355,-0.0312,-0.0311,-0.031,-0.0337,-0.0339,-0.0341,0,0,0,0,0,0,-0.0252,-0.0259,-0.0311,-0.029,-0.0293,-0.0323,-0.0329,-0.0319,-0.0344,-0.036,-0.0361,-0.0364,-0.0317,-0.0344,-0.0341,-0.0328,-0.0314,-0.0312,-0.0312,-0.0311,-0.0339,-0.034,0,0,0,0,0,0,-0.0256,-0.0262,-0.0289,-0.0292,-0.0294,-0.0357,-0.0311,-0.0344,-0.0388,-0.0357,-0.0385,-0.0383,-0.0316,-0.0315,-0.0343,-0.0332,-0.0329,-0.0314,-0.0313,-0.0312,-0.0312,0,0,0,0,0,0,0,-0.0259,-0.0204,-0.0272,-0.0293,-0.0296,-0.0358,-0.036,-0.0362,-0.0387,-0.0386,-0.0385,-0.0384,-0.0321,-0.0319,-0.0318,-0.0335,0,0,-0.0314,-0.0313,0,0,0,0,0,0,0,0,-0.0202,-0.0204,-0.0272,-0.0273,-0.0273,-0.0358,-0.036,-0.0361,-0.0387,-0.0386,-0.0385,-0.0384,-0.032,-0.0319,-0.0318,0,0,0,0,0,0,0,0,0,0,0,0,0,0,0,-0.0272,-0.0273,0,-0.0358,-0.036,-0.0361,-0.0387,-0.0386,-0.0385,-0.0385,-0.032,-0.0319,-0.0318,0,0,0,0,0,0,0,0,0,0,0,0,0,0,0,0,0,0,0,0,0,0,0,0,0,0,0,0,0,0,0,0,0,0,0,0,0,0,0,0,0,0,0,0,0,0,0,0,0,0,0,0,0,0,0,0,0,0,0,0,0,0,0,0,0,0,0,0,0]}]]]